Weather History for KPSM - June, 2013

Change the Weather History Date:

Saturday, June 8, 2013

  Actual Average Record
Temperature  
Mean Temperature 64 °F -  
Max Temperature 77 °F 69 °F 95 °F (1984)
Min Temperature 51 °F 50 °F 38 °F (1988)
Degree Days  
Heating Degree Days 1    
Growing Degree Days 14 (Base 50)    
Moisture  
Dew Point 56 °F    
Average Humidity 84    
Maximum Humidity 100    
Minimum Humidity 55    
Precipitation  
Precipitation 0.77 in - - ()
Sea Level Pressure  
Sea Level Pressure 29.77 in    
Wind  
Wind Speed 12 mph (NNW)    
Max Wind Speed 16 mph    
Max Gust Speed 25 mph    
Visibility 8 miles    
Events Rain , Thunderstorm    
Averages and records for this station are not official NWS values.
T = Trace of Precipitation, MM = Missing Value Source: NWS Daily Summary

Daily Weather History Graph

Daily Weather History Graph

Search for Another Location

Airport or City:

Trip Planner

Search our weather history database for the weather conditions in past years. The results will help you decide how hot, cold, wet, or windy it might be!

Date:

Astronomy

Jun. 08, 2013 Rise Set
Actual Time 5:04 AM EDT 8:21 PM EDT
Civil Twilight 4:28 AM EDT 8:56 PM EDT
Nautical Twilight 3:43 AM EDT 9:41 PM EDT
Astronomical Twilight 2:48 AM EDT 10:37 PM EDT
Moon 5:10 AM EDT (6/8) 8:19 PM EDT (6/8)
Length of Visible Light 16h 27m
Length of Day
15h 17m
New Moon, 0% of the Moon is Illuminated
Jun 8
New Moon
Jun 16
First Quarter
Jun 23
Full
Jun 30
Last Quarter
Jul 8
New

Hourly Weather History & Observations

Time (EDT) Temp. Dew Point Humidity Pressure Visibility Wind Dir Wind Speed Gust Speed Precip Events Conditions
12:28 AM 51.8 °F 51.8 °F 100% 29.84 in 3.0 mi NE 16.1 mph - N/A Rain Rain
12:58 AM 52.5 °F 52.3 °F 99% 29.83 in 3.0 mi NNE 13.8 mph - 0.08 in Rain Light Rain
1:28 AM 53.6 °F 51.8 °F 94% 29.80 in 4.0 mi NNE 10.4 mph - N/A Rain Light Rain
1:58 AM 52.9 °F 52.2 °F 97% 29.79 in 1.5 mi NE 13.8 mph 20.7 mph 0.11 in Rain Heavy Rain
2:43 AM 53.6 °F 51.8 °F 94% 29.76 in 3.0 mi NNE 12.7 mph - N/A Rain Rain
2:58 AM 52.9 °F 52.3 °F 98% 29.77 in 3.0 mi NE 13.8 mph - 0.32 in Rain Rain
3:58 AM 53.1 °F 52.3 °F 97% 29.72 in 4.0 mi NNE 11.5 mph 20.7 mph 0.19 in Rain , Thunderstorm Light Thunderstorms and Rain
4:14 AM 53.6 °F 51.8 °F 94% 29.69 in 4.0 mi NE 12.7 mph 19.6 mph N/A Rain Light Rain
4:32 AM 53.6 °F 51.8 °F 94% 29.68 in 7.0 mi NE 12.7 mph - N/A   Overcast
4:58 AM 53.2 °F 52.7 °F 98% 29.69 in 4.0 mi NNE 11.5 mph - 0.06 in Rain Light Rain
5:45 AM 53.6 °F 53.6 °F 100% 29.67 in 10.0 mi NNE 10.4 mph - N/A   Overcast
5:58 AM 53.8 °F 53.2 °F 98% 29.67 in 10.0 mi NNE 11.5 mph - 0.01 in   Overcast
6:14 AM 53.6 °F 53.6 °F 100% 29.65 in 5.0 mi NNE 11.5 mph 19.6 mph N/A   Overcast
6:58 AM 54.3 °F 53.8 °F 98% 29.65 in 5.0 mi North 9.2 mph - 0.00 in   Light Drizzle
7:31 AM 55.4 °F 53.6 °F 94% 29.62 in 6.0 mi North 13.8 mph - N/A   Overcast
7:58 AM 55.2 °F 54.3 °F 97% 29.64 in 7.0 mi North 16.1 mph 19.6 mph 0.00 in   Overcast
8:58 AM 57.6 °F 55.0 °F 91% 29.64 in 10.0 mi North 16.1 mph 21.9 mph N/A   Overcast
9:28 AM 57.2 °F 55.4 °F 94% 29.66 in 10.0 mi NNW 13.8 mph 20.7 mph N/A   Overcast
9:58 AM 58.6 °F 54.7 °F 87% 29.70 in 10.0 mi NW 13.8 mph 25.3 mph N/A   Overcast
10:58 AM 63.3 °F 55.8 °F 76% 29.72 in 10.0 mi NW 16.1 mph 21.9 mph N/A   Mostly Cloudy
11:58 AM 68.4 °F 56.8 °F 67% 29.75 in 10.0 mi NW 13.8 mph - N/A   Mostly Cloudy
12:58 PM 71.4 °F 59.4 °F 66% 29.76 in 10.0 mi West 12.7 mph 19.6 mph N/A   Overcast
1:28 PM 71.6 °F 59.0 °F 64% 29.76 in 10.0 mi West 8.1 mph - N/A   Mostly Cloudy
1:58 PM 73.2 °F 58.6 °F 60% 29.78 in 10.0 mi West 16.1 mph 21.9 mph N/A   Mostly Cloudy
2:58 PM 75.2 °F 60.1 °F 59% 29.80 in 10.0 mi West 10.4 mph 18.4 mph N/A   Mostly Cloudy
3:58 PM 77.2 °F 60.1 °F 55% 29.81 in 10.0 mi West 13.8 mph 20.7 mph N/A   Mostly Cloudy
4:58 PM 74.8 °F 60.6 °F 61% 29.83 in 10.0 mi WNW 8.1 mph - N/A   Mostly Cloudy
5:58 PM 72.5 °F 59.7 °F 64% 29.86 in 10.0 mi West 8.1 mph - N/A   Overcast
6:58 PM 70.9 °F 59.5 °F 67% 29.89 in 10.0 mi WNW 8.1 mph - N/A   Overcast
7:58 PM 68.7 °F 58.8 °F 71% 29.92 in 10.0 mi West 4.6 mph - N/A   Mostly Cloudy
8:58 PM 66.7 °F 57.9 °F 73% 29.92 in 10.0 mi WNW 3.5 mph - N/A   Mostly Cloudy
9:58 PM 64.6 °F 58.1 °F 79% 29.96 in 10.0 mi West 4.6 mph - N/A   Mostly Cloudy
10:58 PM 62.8 °F 58.8 °F 87% 29.98 in 10.0 mi WSW 3.5 mph - N/A   Mostly Cloudy
11:58 PM 61.3 °F 57.7 °F 88% 29.98 in 10.0 mi West 4.6 mph - N/A   Mostly Cloudy